Content
SEND FEEDBACK

Daily
Averages
Monthly
Summary
India

JAIPUR, INDIA


Home > Asia > India
Elevation: 1279 feet     Latitude: 26 49N     Longitude: 075 48E

WEATHER
 
SELECT A DAY
Number of Records: 101,988;   Date Range: 10/1/99 - 12/17/14
 
SHARE

PRINT THIS DATA

[ ← Previous Day ]
WEATHER ALMANAC - JULY 3, 2013
[ Next Day → ]
[ °C ]   °F
Weather ElementAverageHighLow
Temperature83.4 °F89.6 °F (4:00 pm)78.8 °F (9:30 am)
Dewpoint75.5 °F78.8 °F (3:00 pm)71.6 °F (9:30 am)
Humidity76.3 %89 % (5:00 am)56 % (5:30 pm)
Barometer29.51 in29.59 in (9:00 am)29.38 in (5:30 pm)
Wind Speed4.4 mph11.5 mph (7:00 pm)
Weather ElementAverage
Visibility2.1 mi
Wind DirectionENE (68.8 °)

Weather ElementTotal
Precipitation---
Cooling Degree Days19.2 (Base 65)
Growing Degree Days34.2 (Base 50)
Averaged from 28 records on July 3, 2013
WEATHER CONDITIONS BREAKOUT
WIND DIRECTION BREAKOUT
WEATHER BY HOUR - JULY 3, 2013
[ °C ]   °F
Local TimeTemperatureDewpointHumidityBarometerVisibilityWind DirectionWind SpeedGust SpeedPrecipitationEventsConditions
1:00 AM80.6 °F75.2 °F84 %29.53 in2.5 miWest (280°)6.9 mphHaze
2:00 AM80.6 °F75.2 °F84 %29.50 in2.5 miNW (310°)3.5 mphHaze
2:30 AM81.0 °F74.0 °F74 %29.46 in2.0 miCalmHaze
3:00 AM82.4 °F75.2 °F79 %29.50 in2.5 miCalmHaze
5:00 AM80.6 °F77.0 °F89 %29.50 in2.5 miCalmHaze
5:30 AM82.0 °F73.0 °F69 %29.45 in2.0 miNE (50°)1.2 mphHaze
6:00 AM82.4 °F73.4 °F74 %29.53 in2.5 miNE (50°)5.8 mphHaze
7:00 AM82.4 °F75.2 °F79 %29.56 in2.5 miEast (80°)4.6 mphHaze
8:30 AM82.0 °F76.0 °F77 %29.51 in1.0 miNE (50°)6.9 mphRainLight Drizzle
9:00 AM82.4 °F75.2 °F79 %29.59 in1.9 miNNE (30°)4.6 mphOvercast
9:30 AM78.8 °F71.6 °F78 %29.59 in1.9 miVariable8.1 mphDrizzle
10:00 AM78.8 °F73.4 °F83 %29.59 in1.9 miNW (320°)3.5 mphDrizzle
11:00 AM84.2 °F75.2 °F74 %29.56 in1.9 miCalmHaze
11:30 AM82.0 °F75.0 °F74 %29.51 in2.0 mi°3.5 mphRainLight Rain
12:00 PM86.0 °F75.2 °F70 %29.56 in2.5 miCalmHaze
1:00 PM87.8 °F75.2 °F66 %29.56 in2.5 miNE (40°)5.8 mphHaze
2:00 PM87.8 °F75.2 °F66 %29.53 in2.5 miVariable6.9 mphHaze
2:30 PM87.0 °F77.0 °F64 %29.44 in1.0 miNNE (20°)1.2 mphHaze
3:00 PM87.8 °F78.8 °F75 %29.50 in2.5 miESE (120°)4.6 mphHaze
4:00 PM89.6 °F77.0 °F66 %29.47 in2.5 miNE (40°)5.8 mphHaze
5:00 PM89.6 °F77.0 °F66 %29.44 in2.5 miNE (40°)9.2 mphHaze
5:30 PM89.0 °F75.0 °F56 %29.38 in2.0 miNE (50°)9.2 mphHaze
7:00 PM84.2 °F73.4 °F70 %29.50 in1.9 miEast (80°)11.5 mphHaze
8:00 PM80.6 °F77.0 °F89 %29.53 in1.9 miVariable2.3 mphRain-ThunderstormLight Thunderstorms and Rain
9:00 PM80.6 °F77.0 °F89 %29.53 in1.9 miNE (40°)3.5 mphThunderstormThunderstorm
10:00 PM82.4 °F77.0 °F84 %29.53 in1.9 miNE (40°)4.6 mphMostly Cloudy
11:00 PM80.6 °F77.0 °F89 %29.53 in1.9 miEast (80°)5.8 mphMostly Cloudy
11:30 PM81.0 °F78.0 °F88 %29.46 in1.0 miENE (70°)4.6 mphMist
Hourly data recorded from VIJP, located miles away from Jaipur, India







STORIES FROM OUR PARTNERS